Weather History for Appleton, MN

Change the Weather History Date:

Friday, May 10, 2013

  Actual Average Record
Temperature  
Mean Temperature 53 °F -  
Max Temperature 71 °F 64 °F 84 °F (2011)
Min Temperature 35 °F 41 °F 28 °F (2002)
Degree Days  
Heating Degree Days 12    
Growing Degree Days 3 (Base 50)    
Moisture  
Dew Point 31 °F    
Average Humidity 48    
Maximum Humidity 87    
Minimum Humidity 18    
Precipitation  
Precipitation 0.00 in - - ()
Sea Level Pressure  
Sea Level Pressure 30.06 in    
Wind  
Wind Speed 8 mph (North)    
Max Wind Speed 34 mph    
Max Gust Speed 44 mph    
Visibility 10 miles    
Events Rain    
Averages and records for this station are not official NWS values.
T = Trace of Precipitation, MM = Missing Value Source: NWS Daily Summary

Daily Weather History Graph

Daily Weather History Graph

Search for Another Location

Airport:

Trip Planner

Search our weather history database for the weather conditions in past years. The results will help you decide how hot, cold, wet, or windy it might be!

Date:

Astronomy

May. 10, 2013 Rise Set
Actual Time 5:59 AM CDT 8:41 PM CDT
Civil Twilight 5:26 AM CDT 9:15 PM CDT
Nautical Twilight 4:43 AM CDT 9:58 PM CDT
Astronomical Twilight 3:54 AM CDT 10:47 PM CDT
Moon 6:24 AM CDT (5/10) 9:33 PM CDT (5/10)
Length of Visible Light 15h 49m
Length of Day
14h 41m
New Moon, 0% of the Moon is Illuminated
May 10
New Moon
May 17
First Quarter
May 24
Full
May 31
Last Quarter
Jun 8
New

Hourly Weather History & Observations

Time (CDT) Temp. Windchill Dew Point Humidity Pressure Visibility Wind Dir Wind Speed Gust Speed Precip Events Conditions
12:53 AM 46.4 °F 45.2 °F 37.4 °F 71% 30.15 in 10.0 mi ENE 3.5 mph - N/A   Scattered Clouds
1:13 AM 44.6 °F 41.4 °F 39.2 °F 81% 30.16 in 10.0 mi NE 5.8 mph - N/A   Mostly Cloudy
1:33 AM 44.6 °F 40.7 °F 39.2 °F 81% 30.16 in 10.0 mi NE 6.9 mph - N/A   Mostly Cloudy
1:53 AM 46.4 °F - 39.2 °F 76% 30.16 in 10.0 mi Calm Calm - N/A   Overcast
2:13 AM 46.4 °F 45.2 °F 37.4 °F 71% 30.16 in 10.0 mi NNE 3.5 mph - N/A   Mostly Cloudy
2:34 AM 46.4 °F 44.3 °F 37.4 °F 71% 30.15 in 10.0 mi NE 4.6 mph - N/A   Scattered Clouds
3:14 AM 42.8 °F 41.1 °F 37.4 °F 81% 30.15 in 10.0 mi NNE 3.5 mph - N/A   Mostly Cloudy
3:53 AM 41.0 °F 37.1 °F 35.6 °F 81% 30.15 in 10.0 mi NE 5.8 mph - N/A   Scattered Clouds
4:14 AM 39.2 °F 34.2 °F 35.6 °F 87% 30.14 in 10.0 mi NE 6.9 mph - N/A   Clear
4:34 AM 39.2 °F 34.2 °F 33.8 °F 81% 30.15 in 10.0 mi NE 6.9 mph - N/A   Clear
4:53 AM 39.2 °F 35.0 °F 33.8 °F 81% 30.16 in 10.0 mi NE 5.8 mph - N/A   Scattered Clouds
5:13 AM 37.4 °F 32.1 °F 32.0 °F 81% 30.15 in 10.0 mi NE 6.9 mph - N/A   Scattered Clouds
5:33 AM 37.4 °F 32.8 °F 30.2 °F 75% 30.15 in 10.0 mi NE 5.8 mph - N/A   Clear
5:53 AM 35.6 °F 30.7 °F 30.2 °F 81% 30.16 in 10.0 mi NE 5.8 mph - N/A   Clear
6:14 AM 35.6 °F 29.9 °F 30.2 °F 81% 30.16 in 10.0 mi NE 6.9 mph - N/A   Clear
6:34 AM 35.6 °F 31.7 °F 30.2 °F 81% 30.16 in 10.0 mi North 4.6 mph - N/A   Clear
6:53 AM 37.4 °F 34.9 °F 30.2 °F 75% 30.16 in 10.0 mi NNW 3.5 mph - N/A   Clear
7:13 AM 39.2 °F 37.0 °F 32.0 °F 75% 30.16 in 10.0 mi NNE 3.5 mph - N/A   Clear
7:34 AM 42.8 °F 39.3 °F 30.2 °F 61% 30.15 in 10.0 mi NE 5.8 mph - N/A   Clear
7:53 AM 42.8 °F 37.5 °F 30.2 °F 61% 30.16 in 10.0 mi ENE 9.2 mph - N/A   Clear
8:13 AM 44.6 °F 38.8 °F 30.2 °F 57% 30.15 in 10.0 mi East 11.5 mph - N/A   Clear
8:33 AM 44.6 °F 38.8 °F 28.4 °F 53% 30.15 in 10.0 mi East 11.5 mph - N/A   Clear
8:54 AM 46.4 °F 41.9 °F 28.4 °F 50% 30.16 in 10.0 mi East 9.2 mph - N/A   Clear
9:13 AM 46.4 °F 41.9 °F 28.4 °F 50% 30.15 in 10.0 mi East 9.2 mph - N/A   Clear
9:33 AM 48.2 °F - 28.4 °F 46% 30.14 in 10.0 mi ESE 9.2 mph - N/A   Clear
9:53 AM 50.0 °F - 26.6 °F 40% 30.14 in 10.0 mi ESE 5.8 mph - N/A   Clear
10:13 AM 51.8 °F - 28.4 °F 41% 30.13 in 10.0 mi SE 6.9 mph - N/A   Clear
10:34 AM 53.6 °F - 26.6 °F 35% 30.13 in 10.0 mi East 6.9 mph - N/A   Clear
10:53 AM 53.6 °F - 26.6 °F 35% 30.13 in 10.0 mi East 3.5 mph - N/A   Clear
11:13 AM 53.6 °F - 23.0 °F 30% 30.12 in 10.0 mi SSE 3.5 mph - N/A   Clear
11:33 AM 55.4 °F - 21.2 °F 26% 30.11 in 10.0 mi SSW 3.5 mph - N/A   Clear
12:13 PM 59.0 °F - 21.2 °F 23% 30.10 in 10.0 mi WSW 5.8 mph - N/A   Clear
12:34 PM 59.0 °F - 21.2 °F 23% 30.09 in 10.0 mi West 3.5 mph - N/A   Clear
12:53 PM 60.8 °F - 23.0 °F 23% 30.09 in 10.0 mi East 3.5 mph - N/A   Clear
1:13 PM 62.6 °F - 23.0 °F 22% 30.07 in 10.0 mi SSE 5.8 mph - N/A   Clear
1:34 PM 62.6 °F - 23.0 °F 22% 30.07 in 10.0 mi Calm Calm - N/A   Clear
1:54 PM 62.6 °F - 24.8 °F 24% 30.06 in 10.0 mi South 4.6 mph - N/A   Clear
2:13 PM 62.6 °F - 24.8 °F 24% 30.05 in 10.0 mi SSW 3.5 mph - N/A   Clear
2:33 PM 64.4 °F - 26.6 °F 24% 30.04 in 10.0 mi SSW 6.9 mph - N/A   Clear
2:53 PM 64.4 °F - 23.0 °F 21% 30.03 in 10.0 mi WSW 4.6 mph - N/A   Clear
3:15 PM 66.2 °F - 24.8 °F 21% 30.02 in 10.0 mi West 8.1 mph - N/A   Clear
3:34 PM 66.2 °F - 23.0 °F 19% 30.01 in 10.0 mi SW 10.4 mph 16.1 mph N/A   Clear
3:53 PM 66.2 °F - 24.8 °F 21% 29.99 in 10.0 mi West 8.1 mph - N/A   Clear
4:13 PM 69.8 °F - 24.8 °F 18% 29.98 in 10.0 mi WSW 10.4 mph - N/A   Clear
4:33 PM 68.0 °F - 26.6 °F 21% 29.97 in 10.0 mi WSW 9.2 mph - N/A   Clear
4:53 PM 69.8 °F - 26.6 °F 20% 29.97 in 10.0 mi WSW 9.2 mph - N/A   Clear
5:13 PM 71.6 °F - 28.4 °F 20% 29.95 in 10.0 mi West 9.2 mph 16.1 mph N/A   Clear
5:33 PM 71.6 °F - 28.4 °F 20% 29.95 in 10.0 mi SW 12.7 mph 18.4 mph N/A   Clear
5:54 PM 71.6 °F - 28.4 °F 20% 29.93 in 10.0 mi SW 8.1 mph - N/A   Clear
6:13 PM 71.6 °F - 26.6 °F 19% 29.91 in 10.0 mi WSW 8.1 mph 17.3 mph N/A   Clear
6:34 PM 69.8 °F - 28.4 °F 21% 29.90 in 10.0 mi WSW 9.2 mph - N/A   Clear
6:53 PM 71.6 °F - 30.2 °F 22% 29.90 in 10.0 mi WSW 8.1 mph - N/A   Scattered Clouds
7:13 PM 69.8 °F - 33.8 °F 27% 29.89 in 10.0 mi West 12.7 mph - N/A   Scattered Clouds
7:33 PM 69.8 °F - 37.4 °F 31% 29.91 in 10.0 mi West 25.3 mph 33.4 mph N/A   Mostly Cloudy
7:53 PM 64.4 °F - 44.6 °F 49% 29.90 in 10.0 mi West 9.2 mph - N/A   Mostly Cloudy
8:13 PM 62.6 °F - 48.2 °F 59% 29.89 in 10.0 mi WSW 4.6 mph - N/A   Mostly Cloudy
8:33 PM 60.8 °F - 48.2 °F 63% 29.92 in 10.0 mi NW 16.1 mph 26.5 mph N/A Rain Light Rain
8:54 PM 57.2 °F - 42.8 °F 59% 29.93 in 10.0 mi North 27.6 mph 40.3 mph N/A   Scattered Clouds
9:14 PM 57.2 °F - 41.0 °F 55% 29.96 in 10.0 mi NNW 34.5 mph 41.4 mph N/A   Clear
9:33 PM 55.4 °F - 39.2 °F 54% 29.98 in 10.0 mi North 34.5 mph 43.7 mph N/A   Mostly Cloudy
9:53 PM 53.6 °F - 37.4 °F 54% 29.99 in 10.0 mi North 29.9 mph 36.8 mph N/A   Scattered Clouds
10:14 PM 53.6 °F - 33.8 °F 47% 30.01 in 10.0 mi North 29.9 mph 39.1 mph N/A   Clear
10:33 PM 51.8 °F - 33.8 °F 50% 30.03 in 10.0 mi NNW 29.9 mph 38.0 mph N/A   Clear
10:54 PM 50.0 °F - 33.8 °F 54% 30.04 in 10.0 mi NNW 21.9 mph 29.9 mph N/A   Clear
11:28 PM 48.2 °F - 33.8 °F 58% 30.05 in 10.0 mi NNW 17.3 mph - N/A   Clear
11:34 PM 48.2 °F - 33.8 °F 58% 30.05 in 10.0 mi NNW 17.3 mph - N/A   Clear
11:54 PM 46.4 °F 40.1 °F 33.8 °F 62% 30.06 in 10.0 mi NNW 15.0 mph - N/A   Clear